NOAA 17 DEB, 48765

Orbit data source: Space-Track

NOAA 17 DEB, 48765 is space debris in SSO originally from a launch on Mon, 24 Jun 2002 UTC launched from the Air Force Western Test Range (AFWTR). Debris objects in space refer to the collection of defunct objects orbiting the Earth. Examples of debris include non-operational satellites, rocket bodies, and fragments generated from explosions, collisions, or faulty payload assembly.

Loading next visibility...
Identifier
48765, 2002-032DA
Orbit
SSO
Country
Flag of USUS
Related business
Manufacturer
Unknown
Mission
Spacecraft
Bus & Motor
Unknown
Mass
Unknown
Launch date (UTC)
2002-06-24 (23 years ago)
Launch vehicle
Unknown
Launch site
Air Force Western Test Range (AFWTR)
Object type
Payload
Rocket body
Debris
Shape & HBR
Unknown shape, 0.1 m
Radar Cross Section
Small (<0.1 m²)

Expand to show TLE details & history
Last TLE update: 1 day ago

TLE from 1 day ago
0 NOAA 17 DEB
1 48765U 02032DA  25348.97340026  .00014871  00000-0  20276-2 0  9990
2 48765  98.7021 356.5797 0011158 159.5980 200.5676 14.78738179246333
Epoch: 2025-12-14T23:21Z
TLE epoch observation values (Epoch: 2025-12-14T23:21:41.782Z)
Latitude
-0.00008°
Longitude
-77.72301°
Altitude
643.632 km
Speed
7.532 km/s
True Right ascension
23h 46m 19s
True Declination
0° 00' 00"
Sunlit
Object was in daylight at epoch
Visualization orbit readout
Latitude
Unknown
Longitude
Unknown
Altitude
Unknown
Speed
Unknown
Apparent Right ascension
Unknown
Apparent Declination
Unknown
Sunlit
N/A
Visualization observer readout
Local Sidereal Time
08:20:25
Azimuth
Unknown
Elevation
Unknown
Doppler factor
Unknown
Orbital elements
Apogee altitude
638.21 km
Perigee altitude
622.57 km
Semi-major axis
7,008.527 km
Eccentricity
0.00112
Inclination
98.7021°
RAAN
356.5797°
Arg. of periapsis
159.598°
True anomaly
200.52274°
Mean anomaly
200.5676°
Eccentric anomaly
200.54516°
Mean motion
3.69916 °/min
Orbital period
97.32 mins
BSTAR
0.0020276
Loading maneuver chart data...
Computing Atmospheric mass density...
Loading historical data...
Loading historical data...
Loading historical data...
Loading historical data...
Loading historical data...
Loading historical data...
Loading historical data...

Documentation

Showing up to 5 results
|